Wind_Speed
12 12 13 14 14 15 14 14 13 13 13 12 12 13 14 16 17 18 19 18 17 17 17 17 18 19 18 18 19 19 18 18 17 15 14 13 14 16 15 14 13 12 13 15 16 16 15 13 13 12 13 12 12 11 10 10 8 7 6 5 4 5 5 4 3 3 3 2 1 1 2 2 1 2 2 3 3 4 4 4 4 3 2 2 2
11 12 13 14 14 15 15 14 14 13 13 13 12 13 14 16 18 19 20 20 18 17 17 18 19 19 19 18 18 18 19 19 18 16 15 14 12 13 15 15 15 14 15 16 16 17 16 15 14 13 13 13 13 13 12 11 10 9 7 6 5 5 5 5 5 4 3 3 2 2 2 2 1 2 2 3 3 3 3 3 3 3 2 2 3
12 13 14 15 16 16 17 17 16 15 15 14 14 15 15 16 16 17 17 17 17 17 18 19 19 18 18 18 18 19 19 20 20 17 16 15 13 12 14 16 17 17 16 17 17 18 18 17 16 15 14 14 14 14 14 14 13 12 10 8 7 6 5 5 5 5 4 4 3 3 3 3 1 1 2 2 2 2 2 3 3 3 2 3 3
13 14 14 15 16 17 18 18 18 17 16 15 15 15 16 16 16 17 15 14 13 14 17 18 18 16 16 17 17 18 18 19 20 19 18 17 15 13 13 14 17 18 18 18 19 20 20 19 18 17 16 16 15 15 15 15 15 14 13 11 9 7 6 6 6 6 5 5 4 4 4 4 2 1 0 1 1 1 1 2 3 2 3 3 3
14 15 15 15 16 16 17 18 18 19 18 17 16 15 16 15 15 16 16 14 13 13 14 16 16 15 15 16 18 18 18 18 19 19 19 18 17 17 16 14 14 16 19 21 21 21 21 21 20 19 18 18 17 17 17 17 17 17 16 14 12 10 8 8 7 7 6 6 6 5 5 5 4 3 2 1 0 1 0 2 2 3 3 3 3
15 15 16 16 16 17 17 17 18 19 19 19 19 18 17 17 16 15 15 15 15 14 14 15 16 16 16 16 18 19 19 19 19 19 19 18 18 19 20 18 15 15 18 22 24 24 23 22 22 21 20 20 20 19 19 18 18 18 18 17 15 13 11 10 9 8 8 7 7 6 6 6 6 5 4 2 2 2 1 1 2 3 3 4 4
15 15 16 17 17 18 18 18 18 19 19 20 20 20 19 19 18 17 17 16 16 16 16 16 16 16 16 16 18 19 20 21 21 20 19 19 20 20 21 21 20 18 19 21 24 26 25 24 23 23 23 22 22 21 21 20 20 19 19 19 17 15 14 12 11 10 9 8 8 7 7 7 7 6 5 4 4 3 3 2 2 3 4 4 4
15 15 16 17 18 19 19 19 19 19 19 19 20 20 20 20 20 20 20 19 19 19 19 18 18 18 17 17 17 18 19 21 23 23 21 21 22 22 21 22 23 22 21 21 22 25 27 27 25 24 24 24 24 24 23 22 22 21 20 20 19 18 16 15 13 13 11 10 9 8 8 7 7 7 7 6 5 5 4 3 3 3 3 4 5
15 15 16 17 17 18 19 20 20 20 20 20 20 20 20 21 21 21 21 21 21 22 22 21 21 21 20 19 18 17 17 18 21 23 23 24 25 24 22 23 24 24 24 24 23 24 26 27 27 26 26 26 26 26 26 25 24 23 22 21 21 20 19 17 16 14 13 12 12 11 9 9 8 8 8 7 7 7 6 5 4 4 4 4 4
13 14 15 16 17 17 18 19 20 21 21 20 20 20 20 21 21 21 21 21 22 22 23 23 23 23 23 22 21 19 18 17 17 20 23 25 27 27 26 24 24 25 26 27 27 26 25 26 28 29 28 28 28 28 28 28 27 25 24 23 22 22 21 19 18 16 15 14 13 13 12 10 10 9 9 9 8 8 8 7 6 6 5 5 4
12 13 14 15 16 17 18 19 19 20 21 21 21 21 21 21 22 22 23 23 23 24 24 24 24 24 24 24 24 22 21 20 19 18 19 22 24 27 28 27 27 27 27 29 29 29 28 26 27 28 29 29 29 29 30 30 29 28 26 25 24 23 23 22 20 19 17 16 15 14 13 12 11 11 10 10 10 10 9 9 8 7 7 6 5
12 13 14 15 16 18 19 19 20 20 20 20 20 21 22 22 23 24 24 25 25 25 24 24 24 24 24 24 25 24 23 23 22 21 20 21 22 23 25 27 29 29 29 30 31 32 32 30 28 27 28 30 31 31 31 31 30 30 29 27 26 25 25 24 23 21 20 18 17 16 15 14 14 12 12 11 11 11 11 10 10 9 8 8 7
12 13 14 15 16 18 19 19 20 20 20 20 20 20 21 22 24 25 26 26 27 26 25 25 24 24 23 24 25 25 25 25 24 24 23 23 23 23 23 24 27 29 31 32 32 32 32 32 32 29 28 29 32 33 32 32 31 31 31 30 29 28 27 26 25 24 23 21 19 18 17 16 15 14 13 13 12 12 12 12 11 11 10 9 9
13 14 15 16 17 18 19 19 20 20 21 21 21 21 22 22 23 24 26 27 28 28 27 26 25 24 23 23 24 25 25 25 25 25 25 26 26 26 25 25 26 28 30 33 33 31 32 34 34 33 31 30 31 33 34 34 33 33 33 32 31 30 29 29 28 27 26 24 22 20 19 18 17 16 15 14 14 14 14 13 13 12 11 11 10
16 17 17 18 19 19 20 20 20 20 20 21 21 22 22 23 23 24 25 26 27 28 28 27 26 24 23 22 22 23 25 25 25 26 27 27 27 28 28 28 28 28 31 34 33 32 34 36 36 35 35 33 31 32 34 35 35 35 36 34 33 32 31 31 30 30 28 27 25 23 21 20 19 18 17 17 16 15 15 15 15 14 13 13 12
19 20 20 21 21 22 22 22 22 21 20 20 21 21 21 22 23 24 25 26 27 28 28 27 27 27 25 23 22 21 23 24 25 27 27 27 27 28 29 31 32 31 32 32 32 33 35 37 38 37 36 36 35 33 33 34 36 37 37 37 36 35 33 32 32 32 31 30 28 26 24 23 21 20 19 19 18 17 17 16 16 16 16 15 14
23 23 23 23 23 24 24 24 24 23 22 21 21 21 21 22 23 24 25 26 27 28 28 28 28 29 28 26 24 23 22 22 23 25 26 26 26 28 30 32 34 34 33 32 31 33 35 37 39 39 38 37 36 35 34 35 37 38 38 39 39 38 36 34 33 33 33 33 31 29 27 26 24 23 22 21 20 20 19 18 18 17 17 17 17
24 25 26 26 26 26 27 26 26 26 24 23 23 23 23 24 25 26 26 27 28 29 30 29 29 30 30 29 28 26 25 24 22 22 24 26 27 27 29 31 34 35 35 34 33 33 35 37 39 39 39 38 37 37 37 37 36 36 37 38 39 40 39 37 36 35 35 35 34 33 31 29 27 26 25 23 23 22 21 20 19 19 19 18 18
25 26 27 27 28 28 28 28 28 28 28 26 25 25 25 26 27 28 29 29 29 30 30 31 31 32 32 32 31 30 28 27 24 22 22 25 27 28 28 29 31 34 37 37 35 34 34 36 38 39 39 39 38 39 40 39 37 36 37 38 39 40 40 40 39 37 37 37 36 35 34 32 30 29 28 26 25 24 23 22 21 21 20 20 20
26 26 27 28 28 29 29 29 29 29 30 29 29 28 28 28 29 30 31 31 31 31 32 32 33 33 34 33 33 33 32 30 28 25 23 23 25 27 29 28 28 30 35 37 37 37 36 35 36 38 39 39 39 40 40 40 40 39 38 39 40 39 39 41 41 40 40 39 38 37 36 35 33 32 30 29 28 26 25 24 24 23 22 22 21
26 26 27 28 28 29 29 30 30 31 31 31 31 31 31 31 32 33 33 34 34 33 33 33 33 34 34 34 35 35 34 33 30 28 26 25 24 25 27 29 28 29 31 34 36 38 38 36 36 37 39 40 41 41 41 40 41 41 41 40 40 39 39 39 41 42 42 41 40 39 38 38 36 35 33 32 30 29 28 27 26 25 24 23 23
26 26 27 28 29 30 30 30 31 32 32 33 33 33 34 34 34 35 36 36 36 36 35 35 35 35 34 34 35 35 35 35 33 30 29 27 26 26 26 27 28 29 31 33 35 37 38 38 37 37 39 41 43 43 43 42 42 42 42 41 41 40 39 39 40 40 42 42 42 41 40 40 38 37 35 34 33 32 30 29 28 27 26 25 24
27 27 27 28 29 30 31 32 32 32 33 33 34 35 35 36 37 37 38 38 39 39 38 37 36 36 35 35 35 36 36 36 35 33 31 29 28 28 29 29 28 29 32 33 34 36 37 38 38 39 39 41 43 45 44 44 44 44 43 43 42 41 41 40 39 39 40 42 43 43 42 41 40 39 38 37 35 34 33 32 30 29 28 27 26
28 28 29 29 30 31 32 32 32 33 33 34 35 36 37 37 38 39 40 40 41 40 39 38 38 37 37 36 37 38 38 37 37 36 35 33 31 30 31 32 31 30 33 34 33 34 36 37 38 40 41 41 43 45 46 46 46 46 45 44 43 43 43 42 41 40 39 40 42 43 44 43 42 41 40 39 38 37 36 35 34 32 31 29 28
28 28 29 29 30 31 32 32 33 33 34 35 36 37 38 39 39 40 41 42 42 42 41 40 39 39 39 39 39 39 40 39 39 39 39 38 36 34 33 34 34 33 35 36 35 34 35 37 39 41 43 43 43 44 46 47 48 48 49 48 46 46 45 44 43 42 41 40 41 43 45 45 44 43 42 41 40 40 39 38 37 35 33 32 31
28 28 29 29 30 31 32 32 33 34 35 35 36 38 39 40 40 41 42 43 43 43 42 41 41 40 40 40 41 42 42 41 41 42 41 41 41 40 38 37 36 35 36 38 38 37 36 38 40 41 43 44 44 45 46 47 49 51 52 51 50 49 48 47 46 44 43 42 41 42 44 46 46 45 44 43 43 42 41 40 39 38 36 35 34
28 28 29 29 30 31 32 33 34 35 36 36 37 38 38 39 40 41 42 43 43 43 43 43 42 41 41 41 42 44 44 43 43 42 42 43 44 45 44 42 40 38 38 39 39 38 38 39 41 41 42 43 45 46 47 47 49 52 53 53 51 50 49 49 48 47 46 44 42 42 43 45 46 46 45 44 44 43 43 43 42 41 39 38 36
29 28 29 29 30 31 33 34 35 35 36 36 37 38 38 39 40 41 42 43 43 43 43 43 43 42 42 42 44 45 45 45 44 43 43 44 47 48 47 46 43 40 39 39 39 38 39 41 42 42 43 44 45 47 48 48 49 51 53 54 52 51 50 50 50 50 49 46 43 43 44 43 44 46 46 46 45 44 44 44 44 43 42 41 39
29 28 28 29 30 32 33 34 35 36 36 37 37 38 39 40 40 41 43 43 43 43 43 43 42 42 43 44 44 46 46 46 45 45 45 45 46 48 48 47 46 43 40 39 38 38 39 41 43 43 44 44 45 47 49 49 49 50 53 53 52 51 50 49 48 49 50 49 46 45 45 43 43 44 46 47 47 46 45 45 45 45 44 43 42
28 28 28 29 31 32 34 35 36 36 36 37 38 39 40 41 41 42 43 43 44 44 44 43 43 43 43 44 45 47 47 47 47 47 47 45 45 46 47 48 47 45 45 42 39 39 40 41 42 44 44 45 46 47 49 49 49 50 52 52 51 51 51 49 47 47 48 48 47 46 45 44 43 42 43 45 47 48 47 46 46 47 46 46 45
29 29 30 31 32 34 35 36 37 38 38 38 39 39 40 41 42 43 43 44 44 44 44 44 43 43 44 45 46 47 47 48 48 48 47 45 45 46 48 49 50 49 49 48 44 42 42 42 42 43 45 46 47 47 48 49 49 50 51 52 51 51 52 52 49 47 48 48 47 47 46 45 43 40 39 41 44 46 48 48 48 48 48 48 47
30 31 32 33 33 35 36 38 39 39 40 40 40 40 40 41 42 43 44 44 45 45 45 45 44 44 46 47 47 47 47 47 48 48 46 44 44 47 48 50 51 51 50 51 48 44 44 45 44 43 45 47 48 47 47 48 49 50 51 52 52 52 53 54 53 51 49 48 48 47 46 45 43 40 39 39 40 41 45 48 49 49 49 49 49
30 30 31 32 33 34 36 38 39 39 40 40 40 41 41 41 42 43 44 45 45 46 46 46 46 47 47 47 48 48 47 47 47 46 44 42 43 45 47 47 47 48 48 48 48 45 44 45 45 44 45 47 48 48 48 48 48 50 51 51 52 53 53 53 54 55 51 49 49 48 47 47 44 41 39 39 38 38 40 44 48 49 49 50 50
28 29 30 32 33 35 36 38 39 40 40 41 41 42 42 42 42 43 44 46 46 46 47 48 48 49 49 48 47 47 47 47 46 44 42 41 41 42 44 44 44 45 46 46 47 46 44 45 46 45 45 47 48 47 48 48 48 50 52 51 50 52 53 52 53 55 54 50 49 49 49 48 47 44 41 40 38 37 37 39 44 48 49 50 50
28 29 31 33 35 36 38 39 40 41 41 42 42 43 43 43 42 43 44 46 47 47 48 49 49 50 50 49 48 47 46 45 44 43 42 40 40 40 41 42 42 41 43 44 45 45 44 44 45 45 45 47 47 47 48 49 48 49 51 50 49 50 52 53 52 53 56 54 50 49 50 49 48 46 43 41 39 37 36 36 39 44 47 49 50
29 30 33 35 37 38 40 40 41 42 42 42 42 43 44 43 43 43 44 46 48 48 49 50 51 50 49 48 47 46 45 44 43 42 40 38 38 38 39 40 40 40 40 42 44 45 44 43 43 44 44 46 47 46 48 49 48 49 49 49 49 49 50 52 52 51 55 57 53 50 50 50 49 47 44 41 39 37 36 36 37 40 44 47 49
31 32 34 37 39 40 41 42 42 43 43 43 43 44 45 44 43 44 45 46 48 49 50 51 51 50 49 47 46 44 42 41 40 39 38 36 36 36 37 38 39 39 39 41 42 43 43 42 42 42 42 44 46 46 47 48 48 49 50 49 49 50 50 51 52 51 54 58 56 52 51 50 49 47 44 42 40 38 37 35 35 38 42 45 47
32 33 35 38 40 42 43 44 45 46 45 44 44 44 44 44 44 45 46 47 48 50 51 50 50 49 48 46 43 41 39 38 38 38 35 34 34 35 36 37 38 39 40 41 41 41 41 41 41 41 41 42 44 45 46 47 47 48 49 49 48 50 50 50 51 51 52 57 58 54 51 51 49 47 45 44 42 41 39 37 36 36 40 43 45
33 35 37 40 42 44 44 45 46 46 45 45 45 45 45 45 46 46 47 47 48 49 49 48 48 48 46 44 41 39 37 36 37 37 34 33 33 34 36 38 39 40 40 41 41 40 39 38 39 40 41 40 42 44 45 46 47 46 48 49 48 49 51 50 49 49 51 54 58 56 53 51 50 48 46 45 44 43 41 39 37 37 38 41 43
35 37 39 41 43 44 45 45 46 46 46 47 47 45 45 46 46 47 47 48 48 47 47 46 46 45 44 42 39 37 36 35 35 35 34 33 33 35 37 38 39 40 41 41 41 39 37 36 36 38 40 40 40 42 44 45 46 45 46 49 48 48 50 51 48 48 50 53 57 58 54 52 51 49 47 45 44 43 43 41 39 37 37 39 40
37 38 40 42 44 45 46 46 47 47 47 47 46 45 46 46 46 46 47 47 47 46 46 45 44 43 41 38 36 35 34 34 34 34 34 34 34 35 36 37 37 39 40 41 40 38 35 33 33 36 39 40 40 41 43 45 45 45 46 48 49 48 49 51 49 47 50 53 57 58 55 52 50 50 48 46 43 42 42 41 39 37 37 37 38
39 40 42 44 45 46 46 47 47 47 47 46 46 46 46 46 46 47 46 46 45 45 45 44 42 40 37 34 32 32 33 33 33 34 34 34 34 35 36 37 38 40 42 42 42 39 35 31 31 33 37 40 40 41 43 45 46 46 45 48 50 48 49 51 50 47 49 53 57 58 55 52 50 49 48 46 42 41 40 38 36 36 36 37 38
40 42 43 45 46 46 46 47 48 47 46 46 45 45 46 47 47 47 45 45 45 45 43 42 41 38 33 31 31 31 31 31 32 33 33 33 33 34 36 38 39 42 44 45 45 42 36 30 29 31 35 39 40 41 44 46 47 46 45 47 49 49 48 50 49 46 47 51 56 57 54 51 48 47 46 45 42 40 37 34 34 35 36 37 38
42 43 45 46 46 46 47 48 48 48 47 47 46 46 47 47 48 46 45 44 44 43 42 41 41 36 31 30 31 30 30 30 31 33 33 33 34 34 35 37 39 41 45 47 47 45 39 32 29 30 33 38 40 41 43 46 47 47 46 47 49 48 47 48 47 45 45 50 56 57 54 51 49 47 46 44 41 39 36 34 34 35 35 37 39
43 45 46 47 47 47 48 49 49 48 48 48 47 46 47 47 47 44 42 41 41 41 41 41 39 34 30 29 30 30 30 30 30 31 32 31 32 33 34 37 39 41 44 47 47 45 42 37 32 31 33 37 40 41 42 45 46 45 45 46 48 47 45 46 45 42 44 50 55 58 57 53 51 49 47 45 43 40 37 36 35 35 35 37 39
44 46 47 48 49 48 48 49 50 49 49 48 47 47 47 46 43 39 37 37 39 40 41 40 36 31 29 28 28 28 30 31 30 30 30 30 31 32 34 36 39 41 43 45 45 43 41 38 36 35 35 37 40 39 40 43 44 43 44 46 47 47 45 45 44 42 44 50 55 59 58 55 53 51 49 47 44 40 38 37 37 36 36 36 38
45 46 48 49 50 50 50 49 49 48 47 47 46 46 46 43 38 35 34 37 40 41 40 37 33 29 28 28 27 27 29 30 30 30 30 30 31 32 34 35 37 40 42 43 43 41 40 38 37 39 37 35 37 38 39 41 42 42 44 45 46 45 44 44 44 43 45 50 55 58 58 55 53 52 50 48 45 41 39 39 38 38 37 37 37
46 47 49 50 50 50 50 48 45 45 46 46 45 45 44 42 39 37 37 39 41 40 39 35 32 29 28 27 26 27 29 29 29 29 30 30 31 32 33 34 36 38 40 41 41 39 40 39 39 42 38 31 33 37 38 40 40 41 44 46 45 43 42 42 43 44 46 49 52 55 56 55 55 53 51 50 48 43 41 40 39 38 38 38 38
47 48 49 50 51 50 49 46 45 47 48 47 46 46 44 43 42 41 41 41 40 39 37 34 31 29 28 26 26 27 28 28 28 28 29 30 31 32 33 34 36 38 39 40 38 37 38 39 40 44 38 27 29 36 38 38 39 41 45 47 44 41 39 40 42 44 44 45 47 51 54 55 55 55 53 52 50 46 43 42 39 38 38 39 39
47 48 49 50 51 50 48 46 47 49 48 46 45 46 46 45 44 42 42 41 39 37 36 33 30 30 28 26 26 27 27 27 27 27 28 29 31 32 33 34 35 37 38 39 37 35 35 36 39 42 37 25 25 33 36 37 38 40 44 45 43 40 38 38 40 43 43 43 45 48 51 51 52 55 54 53 51 47 43 42 40 39 39 40 39
46 47 49 49 49 49 47 46 47 48 47 46 46 46 46 45 44 43 42 41 38 36 35 31 30 30 29 27 26 27 27 27 26 26 27 28 30 30 32 34 35 36 38 39 36 34 33 33 35 37 32 23 23 30 34 35 37 39 42 44 43 39 36 37 41 44 44 42 42 45 48 48 47 50 53 53 49 45 42 41 41 40 40 41 40
Wind_Direction
354 352 345 342 339 336 333 330 328 329 325 317 310 305 302 300 299 298 299 299 298 298 299 304 307 304 295 286 279 275 275 278 282 286 296 294 264 248 249 249 244 237 242 246 241 236 235 235 236 237 238 236 232 231 230 229 227 221 215 209 194 179 174 165 158 151 140 133 124 127 125 106 57 23 18 26 32 30 31 30 29 36 54 94 123
353 354 347 345 344 342 340 340 340 339 335 329 320 311 305 304 303 302 297 292 290 292 296 302 305 303 296 290 285 280 277 277 278 278 288 298 282 262 257 254 247 238 237 243 244 240 237 236 237 238 240 239 235 233 233 234 233 229 224 222 214 198 187 178 169 167 161 159 163 170 164 152 100 29 9 10 25 33 35 35 41 55 82 117 133
348 349 345 343 343 342 342 343 343 340 336 332 326 319 316 315 314 313 308 298 291 288 291 297 301 300 293 288 284 281 278 278 277 276 280 288 287 276 264 252 246 240 236 241 245 244 240 237 238 239 240 241 239 236 235 236 236 235 230 227 227 218 206 196 183 177 176 172 177 185 183 181 168 57 7 358 8 31 38 40 51 71 97 124 136
347 348 346 345 344 343 344 345 345 344 343 339 333 327 323 323 324 323 323 317 307 299 297 298 300 298 292 287 285 283 280 278 276 275 279 279 274 272 264 251 245 244 243 243 244 245 244 240 238 239 242 242 241 239 238 237 238 239 236 230 229 229 222 214 202 190 185 182 184 191 192 195 199 204 319 350 350 17 50 52 58 78 100 122 135
350 351 350 348 346 345 347 347 346 346 347 346 343 338 335 333 332 329 327 327 323 314 306 303 302 299 293 289 288 287 284 278 274 275 279 274 266 267 267 258 251 251 251 249 247 245 245 243 241 239 241 243 242 240 240 240 239 240 240 236 230 229 230 226 219 207 198 192 190 193 195 198 203 211 219 222 265 292 113 92 82 91 105 118 129
354 354 353 351 350 348 348 348 345 345 346 346 345 344 344 343 343 339 334 332 329 325 318 313 311 307 301 294 288 284 280 275 274 275 275 269 263 264 267 266 261 257 255 253 250 246 244 244 244 243 242 242 243 242 241 241 241 241 242 242 236 231 229 230 228 221 212 203 198 199 199 201 204 209 217 217 208 220 217 154 119 115 119 123 126
355 355 354 353 351 349 348 348 345 344 343 342 342 342 344 344 345 346 344 341 337 333 330 327 324 319 312 303 293 284 276 269 267 270 271 271 270 265 263 264 262 258 255 254 252 249 245 243 243 244 245 243 242 242 242 242 242 242 243 244 242 237 231 229 229 227 222 216 211 208 207 206 208 211 216 218 209 207 216 203 165 141 135 135 132
355 355 355 353 351 349 347 347 345 343 341 340 339 339 339 340 340 342 342 340 337 333 332 333 331 326 320 314 306 296 283 269 262 262 265 270 272 270 263 259 259 257 255 253 252 250 247 244 242 242 244 245 244 242 242 241 241 241 242 244 245 243 238 232 229 228 226 223 220 218 217 215 215 216 217 218 212 204 209 215 203 180 160 149 142
356 355 354 353 351 348 346 345 343 341 340 339 338 338 336 335 335 335 335 333 331 330 329 329 328 324 320 317 314 309 300 284 269 263 263 264 268 271 268 262 259 257 255 252 250 249 248 246 242 239 240 243 245 243 242 241 241 240 240 242 243 244 243 238 233 229 227 225 224 223 223 222 222 223 221 219 215 207 204 211 214 208 196 174 158
356 355 354 353 350 348 345 343 341 339 338 337 337 336 334 333 332 331 331 329 327 326 325 324 322 319 316 315 313 310 306 298 286 273 265 264 265 268 269 266 262 258 255 251 248 248 247 246 243 240 239 240 242 243 242 241 240 240 239 239 241 243 243 242 238 234 230 228 226 225 225 225 225 226 227 224 218 213 209 209 212 214 215 205 185
355 354 353 352 349 347 344 342 340 337 336 335 335 335 334 333 331 330 329 328 326 325 323 321 318 316 314 311 309 306 303 299 294 285 274 268 266 266 266 264 261 260 257 252 248 245 244 243 242 241 239 237 237 240 242 241 240 240 239 238 239 241 242 242 240 237 234 230 228 227 227 226 226 226 229 229 223 218 214 213 213 213 216 217 209
350 351 351 350 348 345 343 341 338 336 334 334 334 334 334 333 332 331 329 328 326 325 323 321 318 316 312 308 304 302 300 296 291 286 281 275 270 267 266 263 260 258 257 254 250 244 242 241 241 241 239 236 234 235 238 239 240 240 240 240 239 239 241 242 241 239 237 234 231 229 228 227 226 226 227 230 229 224 219 218 218 216 217 219 219
345 347 348 347 346 344 342 339 336 334 332 332 333 333 332 332 331 330 330 329 328 326 326 324 322 319 314 308 303 300 296 293 288 285 282 278 274 270 267 265 261 256 254 255 254 249 246 245 244 242 240 237 234 233 233 235 238 239 240 240 239 238 239 240 241 239 238 236 233 231 230 229 227 226 226 227 230 230 226 222 222 221 220 221 221
341 343 345 345 344 343 341 338 335 332 330 330 331 331 331 331 330 330 330 329 328 328 328 328 326 324 321 313 306 301 296 291 287 283 281 277 274 271 269 267 264 260 255 253 254 254 252 251 249 245 242 240 237 233 231 232 234 236 237 238 238 237 237 238 239 239 237 235 234 232 231 231 230 228 226 226 227 229 230 228 227 226 224 225 224
340 341 342 342 341 341 340 339 337 333 330 328 328 328 328 329 330 330 330 329 328 328 328 329 327 325 324 319 313 305 297 293 289 285 281 278 274 270 268 266 263 259 255 253 252 252 250 249 249 247 244 243 241 237 233 231 231 233 234 234 235 235 235 235 237 238 237 235 233 231 230 231 231 230 228 227 226 226 228 229 229 229 228 228 228
339 339 339 339 339 339 339 338 337 334 329 325 324 324 325 326 327 328 328 328 328 327 328 328 327 325 325 323 319 311 301 295 291 287 285 282 278 272 267 264 261 258 255 254 254 252 250 248 247 246 244 244 245 244 240 235 232 231 232 232 232 232 232 233 235 236 237 236 234 231 229 229 230 231 230 229 228 227 226 227 228 229 230 230 230
336 336 335 335 335 335 335 335 335 333 330 325 321 321 322 322 324 325 326 327 327 326 327 328 328 327 326 325 322 319 312 303 294 289 286 283 279 275 270 265 263 261 259 257 255 253 250 248 246 246 244 243 244 246 246 242 239 236 234 233 232 231 230 230 231 234 235 236 235 232 228 227 227 228 229 230 229 229 228 227 227 227 229 230 231
333 333 332 332 332 332 332 331 331 331 329 326 322 320 320 320 322 323 324 325 325 325 326 328 328 327 326 325 323 321 317 312 303 293 288 284 279 275 273 269 266 264 262 260 257 254 251 248 246 245 244 242 240 241 243 243 243 242 240 238 235 232 230 229 229 230 232 234 234 233 230 227 226 225 227 228 229 229 229 229 228 228 227 228 230
329 329 329 329 328 328 327 327 327 327 327 326 323 321 320 320 320 321 322 323 322 323 324 326 328 328 327 325 323 321 319 315 310 301 292 289 286 282 278 274 270 266 264 262 259 257 254 250 247 245 244 242 240 240 240 240 241 242 241 240 238 236 233 231 229 229 230 231 232 233 232 229 226 225 225 226 228 228 228 229 229 229 228 228 229
326 325 325 325 324 323 322 322 323 323 324 323 322 320 319 319 320 320 320 321 321 321 321 323 326 327 327 326 323 321 319 316 313 308 299 292 290 289 286 282 277 271 267 264 261 259 257 253 250 247 245 243 242 242 241 241 240 239 238 237 239 239 237 234 231 229 228 229 229 230 231 231 228 226 225 225 226 227 227 228 229 230 230 229 229
322 321 321 320 320 320 319 319 319 320 320 320 319 319 318 318 319 319 320 319 319 319 319 320 322 324 325 325 323 321 318 315 313 309 304 297 292 290 289 287 284 279 274 268 264 261 259 257 253 250 247 244 243 243 242 242 242 240 237 236 237 239 240 238 236 232 230 228 228 228 229 230 230 228 226 225 225 226 227 227 228 230 230 230 230
317 317 318 318 317 317 318 317 317 317 316 316 316 316 317 316 317 318 318 318 318 317 317 318 318 319 321 322 321 319 317 314 312 309 305 300 293 288 285 285 285 284 280 275 269 265 262 259 257 254 251 247 244 244 244 244 243 241 239 238 237 237 237 237 238 237 235 232 229 228 228 229 229 229 228 227 226 225 226 226 227 228 230 231 231
314 315 315 316 316 316 316 316 315 315 315 314 314 314 315 315 315 316 316 317 317 316 315 316 316 316 316 317 318 317 315 313 310 308 304 299 294 289 285 282 281 282 281 278 275 271 266 263 259 256 253 250 246 244 244 244 243 242 240 238 239 239 237 235 235 238 239 236 233 230 229 228 228 228 228 228 227 226 226 226 226 227 228 229 231
312 313 314 314 315 315 315 315 314 314 314 313 313 313 313 313 314 314 314 314 314 314 314 313 313 313 313 313 314 314 314 312 309 306 302 299 295 290 286 283 280 278 277 277 276 274 270 266 262 258 255 251 248 245 243 242 243 242 240 239 239 239 238 237 235 235 236 237 236 234 231 229 228 228 229 228 228 228 227 226 226 226 226 227 229
311 311 312 312 313 314 314 314 314 314 314 313 313 313 313 313 313 312 312 312 312 313 313 312 311 311 311 311 312 312 313 311 309 305 301 298 296 291 286 282 279 276 274 274 274 273 272 268 263 260 257 254 250 247 245 243 242 241 241 240 239 239 238 237 236 234 234 235 236 236 234 230 229 228 228 229 229 229 228 227 227 226 225 226 227
310 310 310 311 312 313 314 314 314 314 314 314 313 313 313 312 312 311 310 311 312 312 312 312 311 311 311 311 311 312 311 310 307 305 301 298 295 293 289 283 279 276 273 272 272 271 272 270 266 261 258 256 252 249 247 245 242 241 242 240 240 239 237 236 235 234 235 237 237 239 237 233 231 230 229 229 229 229 229 229 228 227 226 225 226
310 309 310 310 311 313 313 314 314 314 314 313 313 312 312 311 310 310 310 311 312 312 312 312 312 311 311 312 312 311 310 308 306 304 301 298 296 293 290 285 280 276 273 271 271 270 269 269 268 265 260 257 254 251 247 245 243 242 242 242 240 239 236 235 235 236 238 239 239 240 240 236 233 231 230 230 230 231 231 231 230 229 228 226 226
310 309 310 311 312 313 313 313 313 313 312 312 312 312 311 311 311 310 311 312 312 313 313 313 312 312 312 312 312 311 309 307 305 303 300 298 296 294 291 287 282 276 271 269 269 270 269 266 265 266 263 259 255 253 248 245 244 243 242 242 241 239 237 235 236 238 240 239 238 239 239 237 235 232 230 231 231 231 232 233 232 231 230 229 227
309 310 310 311 312 312 312 312 312 312 312 311 312 312 312 312 312 312 312 312 313 313 313 313 313 312 312 312 312 310 308 306 305 302 301 298 295 292 291 290 285 279 274 269 265 266 267 265 263 262 263 260 255 253 250 246 244 243 242 242 241 240 238 237 237 237 237 237 238 238 238 238 236 232 231 231 231 231 231 232 234 233 232 231 230
309 309 310 311 311 311 311 312 312 312 312 312 313 313 314 314 313 313 313 313 313 313 313 313 313 312 312 312 311 309 307 305 303 302 302 299 294 291 290 289 287 283 279 275 269 264 262 262 262 260 259 259 256 252 251 248 244 242 242 241 241 240 238 236 234 233 234 236 237 238 238 238 235 232 232 233 233 232 231 231 233 234 234 233 232
309 310 311 312 312 312 312 313 313 314 314 314 314 314 314 314 314 313 313 313 313 314 314 314 314 313 313 312 311 308 305 303 303 302 302 299 293 289 287 288 287 285 283 280 274 267 262 259 259 259 257 257 256 252 250 249 246 242 241 240 239 239 237 234 232 232 234 236 237 237 237 236 234 232 232 233 235 235 233 231 231 232 234 234 234
311 312 312 312 313 313 314 315 315 315 315 314 314 315 314 314 314 314 314 314 314 315 315 315 314 314 313 311 309 306 303 302 301 301 300 296 291 287 286 286 286 286 284 281 276 270 265 261 257 256 256 254 254 252 250 248 247 244 241 239 238 237 237 235 233 233 234 235 236 236 235 234 233 232 232 233 234 236 236 235 232 231 233 234 234
312 312 312 313 314 315 315 315 315 314 314 315 316 316 315 315 315 315 315 315 315 315 315 315 315 314 313 310 307 304 302 301 301 300 299 294 289 287 286 285 285 285 284 282 278 272 267 264 260 256 254 252 251 252 250 246 246 246 243 240 237 236 236 236 234 233 233 233 233 233 232 233 233 232 232 234 236 237 237 237 235 233 233 234 235
311 312 314 316 318 319 318 317 316 316 317 317 317 316 315 315 315 315 316 316 316 316 316 316 315 314 312 309 305 303 302 301 301 300 297 292 288 287 286 286 285 285 284 283 280 275 269 266 263 259 255 252 250 250 250 247 244 245 244 242 239 237 236 236 235 233 231 232 232 231 231 231 232 233 234 235 237 239 239 238 237 235 233 234 235
309 311 313 315 318 320 321 320 320 319 318 317 316 316 315 316 316 316 316 316 317 317 316 316 315 313 311 308 305 303 302 302 301 300 296 291 288 287 285 285 285 284 284 284 282 278 272 267 265 261 256 253 250 248 248 247 244 243 243 242 240 238 236 236 236 234 231 231 231 230 230 230 231 233 234 236 238 240 240 240 239 237 235 234 235
308 310 313 315 319 321 321 321 319 318 317 317 317 316 315 316 317 317 317 317 317 316 316 315 314 312 309 307 304 303 303 303 302 300 296 292 288 287 285 285 285 285 286 286 285 282 277 271 266 262 257 254 252 249 247 246 245 243 242 241 240 239 237 235 235 234 232 230 230 230 230 230 231 231 232 234 237 239 240 240 241 241 239 236 235
310 314 317 320 321 321 320 319 318 318 318 318 317 316 316 316 317 318 318 317 317 316 316 315 313 311 308 306 304 304 304 304 302 300 297 292 289 287 287 286 287 288 289 289 289 286 282 276 268 263 258 255 252 250 248 246 245 243 241 240 239 237 238 236 234 234 232 229 229 230 230 230 230 230 231 234 237 238 238 239 241 243 241 239 237
316 320 321 322 321 321 321 320 320 319 318 317 317 316 316 317 318 318 318 318 317 316 316 314 312 310 308 306 304 303 304 304 302 300 297 292 290 289 289 289 290 292 293 292 291 289 285 279 272 265 259 255 253 251 249 246 244 243 241 240 238 236 237 236 234 233 232 229 227 229 230 230 230 230 231 232 234 236 238 240 242 244 242 239 238
319 321 321 321 321 321 322 322 320 318 316 315 316 316 317 318 319 318 318 317 317 316 315 313 311 309 307 306 303 302 304 304 302 300 296 293 292 291 291 292 293 294 294 294 293 292 287 280 272 266 261 256 252 250 250 247 245 243 241 239 237 236 236 236 234 233 233 228 226 226 228 229 229 230 230 231 232 235 238 240 242 245 244 239 237
319 321 321 321 322 322 322 321 319 317 316 316 316 317 318 319 318 317 317 316 316 315 313 312 310 308 307 305 303 303 303 303 300 298 296 293 293 294 294 295 295 295 295 294 294 293 289 280 270 265 261 257 252 249 249 248 246 244 242 238 235 235 235 235 233 233 232 228 224 224 226 228 228 229 230 232 233 235 238 240 242 246 246 240 237
320 321 322 322 323 322 321 320 319 317 316 316 317 317 317 317 317 316 316 316 315 313 312 311 310 308 306 305 304 303 302 301 300 298 296 295 295 297 297 298 298 299 298 297 296 295 292 282 269 263 260 257 253 249 247 247 246 244 242 238 234 233 234 233 231 231 231 227 223 223 225 227 228 229 230 232 235 237 238 239 240 243 244 239 236
320 321 322 323 323 322 321 320 319 317 317 317 317 316 316 316 316 315 316 315 314 313 312 311 310 308 306 305 304 302 301 301 301 300 298 297 298 300 301 302 303 303 302 302 301 300 295 284 270 263 260 256 254 250 247 247 247 245 242 238 233 231 233 232 230 230 230 226 222 222 224 226 228 229 230 232 236 239 237 234 235 239 239 236 234
320 321 322 322 322 321 320 319 318 317 317 317 316 315 315 315 315 315 316 316 315 314 313 311 310 309 307 305 304 301 300 301 302 300 298 299 302 304 306 307 307 306 306 306 305 304 300 287 271 265 262 258 255 251 248 246 247 245 241 237 232 229 231 231 228 229 230 226 222 220 222 225 227 228 228 230 234 234 229 227 230 234 235 234 234
320 320 321 321 320 320 319 317 316 316 316 315 315 314 315 315 315 316 317 318 317 316 314 312 311 310 307 305 304 302 300 302 302 300 299 301 304 307 308 309 309 310 310 310 309 308 304 292 275 266 265 262 257 253 248 245 245 243 239 235 230 227 228 229 227 227 229 226 221 218 219 223 225 225 226 227 228 226 222 223 228 231 232 232 232
319 320 320 319 318 318 317 316 315 315 314 314 313 314 314 314 315 317 319 319 318 317 315 312 311 309 305 303 303 302 302 303 303 302 302 304 306 308 310 311 313 314 313 313 312 309 306 298 283 272 270 266 260 253 246 242 241 239 235 232 229 226 225 226 225 224 226 225 220 217 218 222 224 224 223 223 222 221 222 224 228 231 232 231 231
319 320 319 318 316 316 316 316 315 314 313 312 312 313 314 314 315 319 322 323 321 319 315 312 310 307 302 300 300 300 302 304 305 306 307 308 309 311 313 315 315 315 314 313 312 308 304 298 289 279 275 271 263 252 242 239 239 235 231 228 226 225 224 224 223 221 223 222 219 217 218 221 223 222 221 220 220 223 227 228 229 231 231 231 231
319 319 317 315 315 316 317 316 314 312 310 310 311 313 313 314 315 317 321 324 323 319 315 312 308 303 299 299 299 299 300 302 304 307 309 311 313 314 315 316 314 314 316 314 312 307 303 299 292 284 280 274 264 249 237 236 236 230 226 224 221 221 222 222 221 219 220 221 218 217 217 219 221 220 218 219 223 229 232 231 230 231 230 230 231
318 317 315 314 314 316 317 316 312 310 310 310 310 311 312 312 311 311 313 318 319 316 314 310 305 300 298 297 298 300 301 300 302 305 309 313 315 315 315 315 314 315 318 317 313 308 305 302 298 292 288 278 260 244 233 234 234 227 223 221 217 217 219 220 218 218 220 220 217 216 216 217 219 218 216 219 226 232 234 232 231 230 229 229 230
316 314 313 313 314 316 316 313 309 310 311 309 308 309 310 309 309 308 309 313 315 312 310 308 302 298 297 296 298 301 302 302 303 306 310 314 314 314 315 317 316 317 320 319 314 309 305 303 298 296 295 281 253 239 232 232 233 227 221 217 214 214 217 217 215 216 218 220 217 214 215 216 218 218 218 220 226 231 233 232 231 230 228 228 230
314 313 313 314 314 315 314 310 307 308 309 307 306 308 309 310 310 309 310 314 315 309 305 304 301 297 297 297 299 302 303 305 306 308 311 314 313 314 317 319 318 319 322 321 315 308 304 298 292 293 295 280 247 235 231 231 233 228 219 214 213 214 215 214 213 212 214 217 216 214 212 214 217 218 218 220 223 228 231 232 232 231 229 228 229
312 312 312 313 313 313 312 309 307 307 308 307 307 308 310 310 311 312 313 316 317 309 302 301 300 296 296 297 299 301 304 307 308 308 312 313 312 315 319 319 319 322 325 325 319 311 306 298 289 288 289 272 240 230 230 231 232 226 216 210 211 214 213 213 211 209 210 211 213 213 211 212 216 216 215 217 220 225 230 233 235 234 230 228 229
Height
5926 5925 5925 5924 5923 5922 5922 5922 5922 5921 5920 5920 5919 5918 5918 5917 5917 5917 5917 5917 5916 5916 5915 5915 5915 5914 5913 5913 5912 5912 5912 5913 5913 5913 5913 5913 5913 5915 5916 5917 5916 5916 5917 5919 5919 5919 5919 5919 5920 5920 5922 5923 5924 5925 5926 5926 5927 5927 5927 5927 5927 5927 5927 5928 5928 5929 5929 5929 5930 5930 5930 5930 5930 5930 5929 5929 5929 5928 5928 5928 5928 5927 5927 5927 5928
5925 5925 5924 5923 5923 5922 5921 5921 5920 5920 5919 5918 5918 5917 5917 5916 5916 5915 5914 5914 5914 5914 5913 5913 5912 5911 5911 5910 5910 5910 5910 5911 5911 5911 5912 5912 5911 5912 5913 5914 5915 5915 5915 5917 5918 5918 5918 5918 5919 5919 5920 5921 5922 5923 5924 5925 5926 5927 5927 5927 5927 5927 5927 5927 5927 5928 5929 5929 5929 5930 5930 5930 5930 5929 5929 5929 5929 5928 5928 5928 5928 5928 5928 5928 5928
5925 5924 5923 5922 5921 5920 5919 5919 5918 5918 5917 5916 5916 5915 5915 5914 5914 5913 5912 5911 5911 5911 5911 5911 5910 5909 5909 5908 5908 5908 5908 5908 5909 5909 5910 5911 5910 5910 5911 5912 5913 5914 5914 5915 5916 5917 5917 5917 5917 5918 5919 5920 5921 5922 5923 5924 5925 5926 5926 5926 5926 5926 5926 5926 5927 5927 5928 5928 5929 5929 5929 5929 5929 5929 5929 5929 5929 5929 5928 5928 5928 5928 5928 5928 5928
5924 5923 5922 5921 5920 5919 5918 5917 5917 5916 5916 5915 5914 5914 5913 5912 5911 5910 5910 5909 5909 5909 5908 5908 5908 5907 5907 5907 5906 5906 5906 5907 5907 5907 5908 5909 5909 5909 5910 5911 5912 5912 5912 5913 5914 5915 5916 5916 5916 5916 5917 5918 5919 5920 5921 5922 5924 5925 5925 5925 5926 5926 5926 5926 5926 5926 5927 5928 5928 5928 5929 5929 5929 5929 5929 5929 5929 5929 5929 5928 5928 5928 5928 5928 5929
5925 5923 5922 5921 5920 5919 5918 5917 5916 5915 5914 5914 5913 5912 5912 5911 5910 5909 5908 5907 5907 5907 5906 5905 5905 5905 5905 5905 5904 5904 5904 5904 5905 5905 5905 5906 5907 5908 5909 5909 5909 5909 5910 5911 5912 5913 5913 5913 5914 5914 5915 5916 5917 5918 5919 5921 5922 5923 5924 5925 5925 5925 5925 5925 5925 5926 5926 5927 5927 5928 5928 5928 5928 5928 5928 5928 5929 5929 5929 5928 5928 5929 5929 5929 5929
5924 5923 5922 5921 5920 5919 5918 5917 5916 5915 5914 5913 5912 5911 5911 5910 5909 5908 5907 5906 5905 5904 5904 5903 5903 5902 5902 5902 5902 5902 5902 5902 5902 5903 5903 5904 5905 5906 5906 5906 5906 5906 5907 5908 5910 5910 5910 5911 5911 5912 5913 5915 5916 5917 5917 5919 5920 5921 5923 5923 5924 5924 5924 5924 5925 5925 5925 5926 5926 5927 5927 5927 5927 5928 5928 5928 5928 5928 5928 5928 5928 5928 5929 5929 5929
5924 5923 5922 5921 5920 5919 5918 5917 5916 5915 5914 5912 5911 5910 5910 5908 5907 5906 5905 5904 5903 5903 5903 5902 5901 5901 5900 5900 5900 5899 5899 5899 5900 5900 5900 5901 5902 5903 5903 5903 5903 5904 5904 5905 5906 5907 5907 5908 5909 5910 5911 5912 5914 5915 5916 5917 5918 5919 5921 5922 5923 5923 5923 5923 5923 5924 5924 5925 5925 5926 5926 5926 5927 5927 5927 5927 5927 5928 5928 5928 5928 5928 5928 5928 5929
5924 5923 5922 5920 5919 5918 5917 5916 5915 5914 5913 5912 5911 5909 5908 5907 5906 5905 5904 5903 5902 5901 5901 5901 5900 5899 5898 5898 5897 5897 5896 5896 5897 5898 5898 5899 5899 5900 5900 5900 5900 5901 5902 5903 5903 5904 5904 5905 5906 5907 5908 5910 5911 5912 5914 5915 5916 5917 5918 5920 5921 5922 5922 5922 5922 5923 5923 5923 5924 5924 5925 5925 5926 5926 5926 5926 5927 5927 5927 5928 5928 5929 5929 5929 5929
5923 5922 5921 5920 5919 5917 5916 5915 5913 5912 5911 5910 5909 5908 5906 5905 5904 5903 5902 5901 5900 5899 5898 5898 5898 5897 5896 5896 5895 5895 5894 5894 5894 5895 5895 5896 5896 5896 5897 5898 5898 5898 5899 5900 5900 5900 5901 5902 5903 5904 5905 5906 5908 5909 5911 5912 5913 5914 5916 5917 5919 5920 5921 5921 5921 5921 5922 5922 5923 5923 5924 5924 5925 5925 5925 5925 5925 5926 5926 5927 5928 5928 5929 5929 5929
5923 5922 5920 5919 5918 5917 5916 5914 5913 5912 5910 5909 5908 5907 5905 5904 5903 5902 5901 5900 5899 5898 5897 5896 5895 5894 5893 5893 5892 5892 5892 5891 5891 5892 5892 5892 5892 5893 5893 5894 5894 5894 5895 5896 5897 5897 5898 5898 5899 5900 5901 5902 5904 5906 5907 5909 5910 5912 5913 5914 5916 5917 5919 5919 5920 5920 5920 5920 5921 5922 5922 5923 5923 5924 5924 5924 5925 5925 5926 5926 5927 5928 5928 5929 5929
5922 5921 5920 5919 5918 5917 5915 5914 5912 5911 5909 5908 5907 5905 5904 5903 5901 5900 5899 5898 5897 5896 5895 5894 5892 5891 5890 5889 5888 5888 5888 5888 5888 5888 5889 5889 5889 5889 5889 5889 5890 5890 5890 5891 5892 5893 5894 5894 5895 5896 5897 5898 5899 5901 5903 5905 5907 5909 5910 5911 5913 5914 5916 5917 5918 5918 5918 5919 5919 5920 5921 5921 5922 5922 5923 5923 5924 5924 5925 5925 5926 5927 5928 5928 5929
5922 5921 5920 5918 5917 5916 5914 5913 5911 5910 5908 5907 5905 5904 5902 5901 5899 5898 5897 5896 5895 5894 5893 5892 5890 5888 5887 5886 5885 5885 5885 5885 5885 5885 5885 5885 5885 5885 5885 5885 5886 5886 5886 5886 5887 5888 5889 5890 5891 5892 5892 5893 5895 5896 5899 5901 5903 5905 5907 5908 5910 5911 5913 5915 5916 5916 5917 5917 5917 5918 5919 5919 5920 5920 5921 5922 5923 5923 5924 5924 5925 5926 5927 5927 5928
5921 5920 5919 5918 5916 5915 5913 5912 5910 5908 5907 5905 5904 5903 5901 5900 5898 5896 5895 5893 5892 5891 5890 5889 5887 5886 5885 5883 5882 5881 5881 5881 5881 5881 5881 5881 5881 5881 5881 5881 5881 5882 5882 5882 5883 5884 5886 5887 5888 5889 5889 5889 5890 5892 5894 5896 5899 5901 5903 5905 5906 5908 5909 5911 5913 5914 5914 5915 5915 5916 5916 5917 5918 5919 5919 5920 5921 5922 5923 5923 5924 5925 5926 5926 5927
5919 5918 5917 5916 5915 5913 5912 5911 5909 5907 5905 5904 5902 5901 5900 5898 5897 5895 5893 5891 5889 5888 5887 5886 5885 5883 5882 5881 5879 5878 5877 5877 5877 5877 5877 5877 5877 5877 5877 5878 5878 5878 5879 5878 5879 5882 5884 5884 5885 5886 5886 5887 5887 5888 5889 5891 5894 5896 5898 5900 5902 5904 5905 5907 5909 5910 5911 5912 5912 5913 5914 5915 5916 5916 5917 5918 5919 5920 5921 5922 5923 5924 5924 5925 5926
5918 5916 5915 5914 5913 5911 5910 5909 5907 5906 5904 5902 5901 5899 5898 5896 5895 5893 5891 5889 5887 5886 5885 5884 5882 5881 5880 5879 5877 5876 5874 5873 5874 5873 5873 5873 5873 5873 5873 5873 5874 5874 5874 5873 5875 5877 5877 5878 5880 5881 5882 5883 5883 5884 5885 5886 5888 5890 5892 5895 5897 5899 5901 5903 5905 5907 5908 5909 5909 5910 5911 5912 5913 5914 5915 5916 5916 5917 5919 5920 5921 5922 5923 5924 5925
5915 5914 5913 5911 5910 5909 5908 5907 5906 5904 5903 5901 5900 5898 5896 5894 5893 5891 5890 5888 5885 5883 5882 5881 5879 5878 5878 5877 5876 5874 5872 5871 5871 5869 5868 5869 5868 5868 5868 5868 5868 5869 5869 5869 5871 5872 5872 5873 5874 5875 5877 5878 5880 5880 5881 5883 5884 5885 5887 5889 5891 5894 5896 5898 5900 5902 5904 5906 5906 5907 5908 5909 5910 5911 5912 5913 5914 5915 5916 5917 5919 5920 5921 5922 5923
5912 5911 5910 5909 5908 5907 5906 5905 5904 5903 5901 5900 5898 5897 5895 5893 5891 5890 5888 5886 5883 5881 5879 5878 5877 5875 5874 5873 5872 5871 5870 5869 5868 5866 5865 5864 5864 5863 5863 5863 5863 5864 5865 5866 5867 5867 5868 5869 5869 5870 5872 5873 5875 5877 5878 5879 5879 5881 5883 5885 5887 5888 5890 5893 5895 5897 5900 5902 5903 5904 5905 5905 5906 5907 5909 5910 5912 5913 5914 5915 5916 5917 5919 5920 5921
5910 5908 5907 5906 5905 5904 5903 5902 5901 5900 5899 5898 5896 5894 5893 5891 5889 5888 5886 5884 5881 5879 5876 5875 5874 5872 5871 5869 5868 5867 5866 5865 5865 5864 5862 5860 5859 5859 5859 5859 5859 5859 5860 5862 5863 5863 5864 5864 5864 5866 5867 5869 5871 5871 5873 5875 5876 5878 5879 5881 5882 5884 5886 5887 5889 5891 5894 5896 5898 5900 5901 5902 5903 5904 5905 5907 5908 5910 5911 5912 5913 5915 5916 5917 5918
5907 5906 5905 5904 5902 5901 5900 5899 5898 5897 5895 5894 5893 5891 5890 5888 5886 5885 5883 5881 5879 5876 5874 5871 5870 5868 5867 5865 5864 5863 5862 5861 5861 5861 5860 5857 5855 5854 5855 5855 5855 5855 5855 5856 5858 5859 5859 5859 5860 5861 5863 5866 5867 5866 5867 5869 5871 5873 5875 5877 5878 5879 5881 5883 5884 5886 5888 5891 5893 5895 5897 5898 5899 5900 5901 5903 5904 5906 5908 5910 5911 5912 5913 5915 5916
5905 5904 5903 5902 5900 5899 5898 5897 5895 5894 5892 5891 5890 5888 5887 5885 5883 5881 5879 5878 5876 5874 5871 5869 5866 5864 5862 5861 5860 5859 5857 5857 5856 5856 5856 5856 5853 5850 5849 5850 5851 5851 5850 5850 5852 5853 5854 5855 5856 5857 5859 5861 5861 5861 5862 5864 5866 5868 5869 5871 5874 5876 5877 5878 5879 5881 5883 5885 5887 5890 5892 5894 5895 5897 5898 5899 5901 5902 5904 5906 5908 5909 5910 5912 5913
5904 5902 5901 5900 5898 5897 5896 5894 5892 5891 5889 5888 5886 5885 5883 5881 5879 5878 5876 5874 5872 5870 5868 5866 5863 5861 5859 5857 5856 5854 5853 5852 5852 5851 5851 5852 5851 5849 5846 5845 5846 5846 5845 5845 5846 5847 5849 5851 5852 5852 5854 5855 5856 5856 5857 5859 5862 5864 5865 5865 5867 5871 5873 5874 5875 5876 5878 5880 5882 5884 5887 5889 5891 5893 5894 5896 5897 5899 5901 5902 5904 5906 5908 5909 5910
5902 5901 5899 5898 5896 5895 5893 5892 5890 5888 5886 5884 5883 5881 5879 5877 5875 5873 5871 5869 5867 5866 5864 5862 5860 5858 5856 5854 5852 5851 5849 5848 5847 5847 5847 5847 5847 5846 5845 5843 5842 5841 5840 5839 5840 5841 5843 5845 5847 5847 5848 5849 5851 5852 5853 5854 5856 5859 5861 5861 5861 5864 5867 5870 5871 5873 5874 5876 5878 5879 5881 5883 5886 5888 5890 5892 5893 5895 5897 5899 5900 5902 5904 5906 5907
5899 5898 5896 5895 5893 5892 5890 5889 5887 5885 5883 5881 5879 5877 5875 5873 5871 5869 5867 5865 5863 5861 5859 5858 5856 5854 5852 5851 5849 5847 5846 5845 5843 5842 5842 5841 5841 5841 5840 5840 5840 5839 5836 5835 5835 5836 5837 5839 5840 5842 5843 5843 5844 5846 5847 5849 5850 5853 5855 5856 5857 5859 5861 5864 5866 5868 5870 5872 5874 5876 5877 5879 5881 5883 5886 5888 5889 5891 5893 5895 5896 5898 5900 5902 5904
5896 5895 5893 5892 5890 5889 5887 5885 5884 5882 5880 5878 5876 5874 5872 5870 5868 5865 5863 5861 5859 5857 5855 5854 5852 5850 5848 5846 5845 5843 5842 5841 5839 5838 5836 5836 5836 5836 5835 5834 5836 5836 5833 5831 5831 5831 5832 5833 5834 5834 5836 5837 5838 5839 5841 5843 5845 5847 5849 5851 5852 5854 5856 5859 5861 5862 5864 5867 5869 5872 5873 5875 5876 5878 5881 5883 5885 5887 5889 5890 5892 5894 5896 5898 5900
5893 5892 5890 5888 5887 5885 5884 5882 5880 5878 5876 5874 5872 5870 5868 5866 5864 5862 5860 5857 5855 5854 5852 5850 5848 5846 5843 5841 5840 5838 5837 5835 5834 5832 5831 5830 5829 5829 5829 5828 5829 5830 5829 5827 5827 5828 5827 5827 5827 5828 5828 5830 5832 5833 5834 5836 5839 5841 5842 5844 5846 5849 5852 5854 5856 5857 5859 5861 5864 5867 5869 5871 5872 5874 5876 5878 5880 5883 5885 5886 5888 5890 5892 5894 5895
5890 5888 5887 5885 5883 5882 5880 5878 5876 5875 5873 5870 5868 5866 5864 5862 5860 5858 5856 5853 5851 5849 5847 5845 5843 5841 5839 5837 5835 5833 5831 5830 5828 5826 5825 5824 5823 5822 5822 5822 5822 5823 5823 5822 5822 5823 5823 5821 5820 5822 5822 5823 5825 5827 5828 5829 5832 5834 5835 5837 5840 5843 5846 5848 5851 5853 5854 5855 5858 5861 5864 5866 5868 5869 5871 5874 5876 5878 5880 5882 5884 5886 5887 5889 5891
5886 5885 5883 5881 5880 5878 5876 5874 5873 5871 5869 5867 5865 5863 5861 5859 5857 5854 5852 5849 5847 5845 5842 5840 5838 5836 5834 5832 5830 5828 5826 5824 5822 5820 5818 5817 5816 5814 5814 5814 5815 5816 5816 5816 5816 5817 5817 5816 5814 5815 5816 5817 5817 5818 5821 5822 5824 5826 5827 5829 5833 5836 5840 5843 5845 5847 5849 5850 5853 5856 5859 5862 5863 5865 5867 5869 5872 5874 5876 5878 5880 5882 5884 5885 5887
5883 5881 5879 5878 5876 5874 5873 5871 5869 5867 5866 5864 5862 5860 5858 5855 5853 5850 5848 5845 5843 5841 5838 5835 5833 5831 5829 5827 5825 5822 5820 5817 5815 5814 5812 5810 5808 5806 5805 5804 5805 5808 5809 5809 5810 5811 5810 5809 5809 5809 5808 5809 5810 5810 5812 5815 5817 5818 5819 5822 5826 5830 5833 5836 5839 5841 5843 5845 5847 5850 5853 5856 5858 5860 5862 5864 5867 5870 5872 5874 5877 5878 5880 5881 5883
5879 5877 5876 5874 5872 5871 5869 5867 5866 5864 5862 5860 5858 5856 5853 5851 5848 5846 5843 5841 5839 5836 5834 5832 5829 5827 5824 5822 5820 5817 5814 5811 5809 5807 5805 5803 5801 5799 5797 5796 5795 5797 5799 5802 5804 5804 5803 5802 5802 5803 5802 5801 5803 5803 5804 5807 5810 5811 5812 5815 5819 5823 5826 5829 5832 5834 5837 5839 5842 5844 5847 5851 5853 5855 5857 5859 5862 5865 5867 5870 5872 5874 5876 5878 5879
5875 5874 5872 5871 5869 5867 5866 5864 5862 5860 5858 5856 5853 5851 5849 5846 5844 5841 5839 5837 5834 5832 5830 5828 5825 5823 5820 5817 5814 5811 5808 5805 5803 5800 5798 5797 5795 5792 5790 5788 5787 5788 5788 5791 5795 5797 5795 5795 5794 5795 5795 5794 5794 5796 5797 5800 5803 5804 5806 5809 5813 5817 5820 5822 5825 5828 5831 5834 5837 5839 5842 5845 5848 5849 5852 5854 5857 5860 5862 5865 5867 5870 5872 5874 5875
5871 5870 5868 5866 5865 5863 5861 5859 5857 5855 5853 5851 5849 5847 5844 5842 5839 5837 5835 5832 5830 5827 5825 5823 5820 5818 5815 5812 5809 5806 5803 5800 5797 5794 5792 5790 5788 5786 5784 5782 5780 5780 5779 5780 5785 5788 5787 5787 5787 5787 5787 5787 5787 5788 5790 5792 5795 5798 5799 5803 5807 5810 5813 5816 5819 5822 5826 5828 5831 5834 5836 5840 5842 5844 5846 5849 5852 5855 5857 5859 5862 5865 5867 5870 5872
5868 5866 5864 5862 5861 5859 5857 5855 5853 5851 5849 5847 5844 5842 5840 5837 5835 5832 5830 5827 5825 5822 5820 5818 5816 5813 5810 5807 5804 5801 5798 5795 5791 5789 5786 5784 5781 5779 5777 5776 5773 5772 5771 5771 5774 5779 5779 5778 5779 5780 5779 5779 5779 5781 5783 5786 5788 5790 5792 5796 5800 5803 5806 5810 5813 5817 5820 5823 5826 5828 5830 5833 5836 5839 5841 5844 5846 5849 5852 5854 5857 5859 5862 5865 5867
5864 5863 5861 5859 5857 5855 5853 5851 5849 5847 5844 5842 5839 5837 5835 5832 5830 5827 5824 5822 5819 5817 5814 5812 5810 5807 5804 5801 5797 5794 5792 5789 5786 5783 5781 5778 5776 5773 5771 5770 5768 5765 5765 5764 5765 5769 5771 5770 5770 5772 5771 5770 5772 5774 5775 5778 5781 5782 5784 5788 5792 5796 5799 5803 5807 5810 5813 5817 5820 5823 5825 5828 5831 5833 5836 5838 5841 5844 5846 5849 5852 5854 5856 5859 5862
5862 5859 5857 5855 5853 5851 5849 5847 5845 5842 5839 5837 5834 5832 5829 5827 5825 5822 5819 5816 5813 5811 5808 5806 5803 5800 5797 5794 5791 5788 5785 5782 5779 5777 5775 5772 5770 5768 5765 5763 5762 5760 5758 5758 5757 5760 5763 5763 5762 5763 5763 5762 5765 5767 5767 5770 5773 5774 5776 5781 5785 5788 5792 5796 5799 5803 5807 5810 5813 5817 5820 5822 5825 5828 5831 5833 5836 5838 5841 5843 5846 5848 5851 5853 5856
5859 5856 5854 5852 5850 5847 5844 5842 5839 5837 5834 5832 5829 5827 5824 5822 5819 5817 5814 5810 5807 5805 5802 5799 5796 5793 5790 5786 5783 5780 5778 5775 5773 5771 5768 5766 5764 5762 5760 5758 5757 5755 5753 5752 5751 5751 5754 5756 5754 5755 5755 5755 5757 5760 5759 5761 5765 5767 5769 5774 5778 5781 5784 5788 5792 5796 5800 5803 5807 5810 5814 5817 5820 5823 5825 5828 5831 5833 5835 5837 5840 5843 5845 5848 5851
5855 5852 5850 5847 5845 5843 5840 5838 5835 5832 5830 5828 5825 5821 5819 5817 5814 5811 5808 5805 5802 5799 5796 5793 5790 5786 5783 5780 5776 5773 5771 5769 5767 5764 5762 5760 5758 5756 5755 5752 5751 5750 5749 5747 5745 5744 5745 5747 5747 5747 5747 5747 5749 5751 5752 5754 5757 5760 5763 5767 5771 5774 5777 5781 5785 5789 5793 5796 5800 5804 5808 5811 5814 5818 5821 5824 5826 5828 5830 5832 5834 5837 5840 5842 5845
5850 5847 5844 5842 5840 5838 5836 5834 5831 5828 5825 5823 5820 5816 5814 5811 5808 5805 5803 5800 5797 5793 5790 5787 5783 5779 5776 5774 5770 5767 5765 5763 5761 5759 5757 5755 5753 5751 5749 5747 5746 5745 5744 5741 5739 5738 5738 5739 5739 5739 5739 5740 5741 5743 5745 5747 5750 5752 5755 5759 5764 5767 5770 5774 5778 5782 5786 5789 5793 5798 5802 5805 5809 5813 5816 5819 5821 5823 5825 5827 5830 5832 5835 5837 5839
5845 5842 5839 5837 5835 5833 5831 5828 5826 5823 5820 5818 5815 5812 5809 5806 5803 5800 5797 5794 5791 5787 5784 5780 5776 5772 5769 5767 5764 5762 5760 5758 5756 5754 5752 5750 5749 5747 5745 5743 5741 5740 5738 5736 5734 5732 5731 5731 5731 5731 5731 5732 5733 5735 5737 5738 5742 5745 5748 5752 5756 5760 5763 5767 5771 5775 5779 5782 5787 5792 5796 5800 5803 5807 5810 5813 5816 5818 5820 5822 5825 5827 5829 5831 5834
5840 5837 5834 5832 5830 5828 5825 5823 5820 5818 5815 5813 5810 5807 5804 5801 5798 5795 5792 5788 5785 5781 5778 5774 5770 5766 5763 5760 5758 5756 5755 5754 5751 5749 5748 5746 5744 5742 5740 5738 5736 5734 5732 5730 5727 5726 5724 5724 5723 5723 5723 5725 5726 5727 5729 5730 5734 5738 5741 5744 5749 5753 5756 5760 5764 5769 5772 5776 5780 5785 5790 5793 5797 5801 5804 5807 5810 5813 5815 5818 5820 5822 5824 5826 5829
5835 5832 5829 5827 5825 5822 5820 5818 5816 5813 5810 5808 5805 5802 5798 5796 5793 5790 5787 5783 5780 5775 5772 5768 5764 5760 5757 5755 5753 5751 5750 5749 5747 5745 5743 5742 5740 5738 5736 5733 5731 5729 5726 5723 5721 5719 5718 5716 5716 5715 5715 5717 5718 5720 5721 5722 5726 5730 5733 5737 5742 5746 5749 5752 5757 5762 5764 5769 5773 5778 5783 5787 5791 5795 5799 5802 5805 5808 5811 5813 5815 5818 5820 5822 5824
5830 5827 5825 5823 5820 5817 5815 5813 5810 5808 5805 5803 5800 5797 5794 5791 5788 5785 5782 5779 5775 5770 5766 5763 5759 5756 5753 5751 5749 5747 5745 5744 5742 5741 5739 5737 5736 5734 5731 5729 5726 5723 5720 5716 5714 5712 5711 5710 5709 5709 5708 5709 5710 5712 5714 5715 5718 5723 5726 5729 5734 5739 5741 5744 5750 5754 5757 5762 5766 5771 5776 5781 5786 5790 5793 5796 5800 5803 5805 5808 5811 5814 5816 5817 5819
5825 5822 5820 5818 5816 5813 5810 5807 5805 5803 5800 5798 5795 5792 5789 5786 5783 5780 5777 5774 5770 5766 5762 5758 5755 5752 5749 5747 5745 5742 5741 5740 5738 5736 5734 5732 5731 5729 5726 5723 5720 5717 5713 5709 5706 5704 5703 5703 5703 5702 5702 5702 5703 5705 5707 5709 5711 5714 5718 5721 5726 5731 5733 5737 5743 5748 5751 5755 5760 5765 5771 5776 5780 5784 5788 5792 5795 5798 5800 5804 5807 5809 5810 5812 5814
5820 5818 5816 5814 5811 5808 5805 5803 5801 5798 5796 5793 5790 5787 5784 5781 5778 5775 5772 5769 5764 5760 5757 5753 5750 5747 5745 5742 5740 5738 5737 5736 5735 5732 5730 5728 5726 5724 5721 5717 5714 5710 5705 5701 5698 5696 5696 5696 5696 5696 5695 5695 5696 5697 5699 5702 5703 5706 5711 5714 5718 5723 5727 5730 5737 5742 5745 5749 5754 5760 5766 5770 5774 5779 5783 5787 5790 5793 5796 5800 5802 5804 5805 5806 5809
5815 5813 5811 5810 5807 5804 5802 5799 5796 5794 5791 5788 5785 5782 5779 5776 5773 5770 5767 5763 5759 5756 5752 5749 5745 5743 5741 5738 5736 5734 5733 5732 5731 5728 5726 5724 5721 5719 5716 5713 5709 5705 5699 5694 5690 5687 5687 5688 5688 5689 5688 5687 5688 5689 5691 5693 5695 5698 5703 5707 5711 5716 5720 5724 5730 5735 5739 5742 5747 5753 5760 5764 5768 5773 5777 5782 5785 5788 5792 5794 5796 5798 5799 5801 5804
5810 5808 5807 5805 5803 5801 5798 5795 5792 5790 5787 5783 5780 5777 5774 5771 5768 5765 5762 5758 5755 5752 5748 5744 5741 5740 5738 5735 5732 5730 5728 5727 5726 5724 5722 5720 5718 5715 5712 5708 5704 5700 5695 5690 5685 5682 5680 5679 5680 5681 5681 5680 5680 5682 5683 5684 5687 5691 5696 5700 5705 5710 5714 5719 5724 5728 5731 5735 5740 5747 5753 5757 5761 5766 5772 5777 5780 5783 5786 5789 5791 5793 5795 5797 5799
5805 5804 5802 5800 5798 5797 5794 5791 5788 5786 5783 5779 5776 5773 5770 5767 5764 5762 5758 5754 5751 5748 5744 5740 5738 5736 5734 5732 5730 5727 5725 5723 5721 5720 5718 5716 5714 5711 5708 5704 5700 5696 5691 5686 5682 5678 5675 5673 5672 5672 5673 5673 5672 5674 5675 5677 5680 5684 5689 5693 5698 5703 5708 5712 5717 5720 5724 5728 5734 5740 5746 5751 5756 5761 5767 5772 5775 5778 5781 5784 5786 5788 5790 5792 5794
5801 5799 5798 5796 5794 5792 5790 5787 5785 5782 5779 5776 5773 5769 5766 5763 5761 5758 5754 5751 5748 5744 5740 5736 5734 5732 5730 5728 5726 5724 5722 5719 5717 5716 5714 5712 5709 5706 5703 5700 5696 5692 5688 5682 5677 5673 5670 5668 5666 5664 5664 5664 5664 5666 5668 5670 5673 5677 5681 5686 5691 5696 5701 5706 5710 5714 5718 5722 5727 5734 5740 5746 5750 5756 5763 5768 5770 5772 5775 5778 5781 5783 5785 5787 5790
5796 5795 5793 5791 5789 5787 5785 5783 5781 5777 5775 5772 5769 5766 5762 5759 5756 5753 5750 5747 5744 5740 5736 5733 5730 5728 5726 5724 5723 5721 5719 5716 5714 5712 5710 5707 5705 5702 5700 5697 5693 5688 5684 5678 5673 5669 5664 5661 5659 5655 5655 5656 5656 5658 5661 5664 5667 5672 5675 5679 5684 5690 5696 5701 5706 5710 5713 5717 5723 5729 5736 5741 5744 5751 5758 5762 5764 5767 5770 5773 5776 5778 5780 5783 5785
5792 5790 5789 5787 5785 5783 5781 5779 5776 5773 5770 5767 5764 5761 5758 5755 5752 5748 5745 5743 5740 5736 5732 5728 5726 5724 5722 5720 5719 5717 5715 5713 5711 5708 5706 5703 5700 5698 5695 5693 5688 5684 5679 5674 5670 5665 5661 5656 5653 5649 5648 5649 5650 5652 5656 5659 5662 5666 5669 5675 5681 5686 5691 5697 5702 5706 5710 5714 5719 5724 5730 5736 5740 5745 5751 5755 5758 5762 5765 5768 5771 5773 5775 5778 5780
5788 5786 5784 5782 5780 5778 5776 5774 5771 5768 5765 5762 5759 5755 5752 5749 5746 5743 5740 5738 5735 5731 5727 5724 5722 5720 5718 5716 5715 5713 5711 5709 5707 5705 5702 5699 5696 5694 5691 5688 5684 5680 5675 5670 5666 5662 5658 5654 5649 5645 5644 5644 5646 5647 5651 5654 5657 5661 5666 5672 5678 5682 5687 5693 5698 5702 5706 5710 5714 5719 5725 5731 5735 5739 5744 5748 5752 5757 5761 5763 5766 5768 5770 5773 5775
5784 5782 5779 5777 5775 5772 5770 5768 5765 5762 5760 5757 5754 5750 5747 5744 5741 5738 5735 5732 5729 5726 5723 5720 5718 5716 5714 5712 5711 5709 5708 5706 5704 5701 5699 5696 5693 5690 5687 5684 5680 5676 5671 5666 5661 5657 5654 5650 5646 5642 5641 5642 5643 5644 5646 5650 5653 5657 5662 5668 5673 5678 5684 5689 5693 5697 5702 5707 5711 5715 5720 5726 5729 5733 5738 5743 5748 5753 5756 5758 5761 5763 5766 5768 5771